When you browse on this site, cookies collect data to enhance your experience and personalize the content and advertising you see.
Visit our Privacy Policy to learn more. By continuing to use the site, you agree to this use of cookies and data.
  • In Österreich
  • Länderverzeichnis
  • Für 7 Tage
  • Wassertemperatur
  • Satellitenkarten
  • Wetterkarte
  • News
  • Widgets
  • user-avatar
    Anmelden

    Stündliche Wetter Pozhnya

    Heute, 18 Februar, Montag

    Zeit Temperatur Niederschläge Wind Luftdruck Luftfeuchtigkeit
    00:00 -5°C° 0 mm 4 m/S 746 mmHg 82%
    01:00 -5°C° 0 mm 3 m/S 747 mmHg 84%
    02:00 -6°C° 0 mm 3 m/S 747 mmHg 85%
    03:00 -6°C° 0 mm 3 m/S 748 mmHg 86%
    04:00 -7°C° 0 mm 3 m/S 748 mmHg 88%
    05:00 -6°C° 0 mm 2 m/S 749 mmHg 89%
    06:00 -6°C° 0 mm 2 m/S 749 mmHg 90%
    07:00 -6°C° 0 mm 2 m/S 750 mmHg 90%
    08:00 -6°C° 0 mm 2 m/S 751 mmHg 91%
    09:00 -6°C° 0 mm 2 m/S 751 mmHg 87%
    10:00 -5°C° 0 mm 2 m/S 751 mmHg 83%
    11:00 -4°C° 0 mm 2 m/S 752 mmHg 79%
    12:00 -3°C° 0 mm 2 m/S 752 mmHg 76%
    13:00 -1°C° 0 mm 1 m/S 752 mmHg 72%
    14:00 0°C° 0 mm 1 m/S 752 mmHg 69%
    15:00 -1°C° 0 mm 1 m/S 752 mmHg 73%
    16:00 -2°C° 0 mm 1 m/S 751 mmHg 77%
    17:00 -3°C° 0 mm 1 m/S 751 mmHg 80%
    18:00 -3°C° 0 mm 1 m/S 751 mmHg 81%
    19:00 -4°C° 0 mm 1 m/S 751 mmHg 82%
    20:00 -6°C° 0 mm 2 m/S 751 mmHg 84%
    21:00 -6°C° 0 mm 2 m/S 751 mmHg 83%
    22:00 -6°C° 0 mm 2 m/S 751 mmHg 82%
    23:00 -6°C° 0 mm 3 m/S 750 mmHg 82%

    Morgen, 19 Februar, Dienstag

    Zeit Temperatur Niederschläge Wind Luftdruck Luftfeuchtigkeit
    00:00 -6°C° 0 mm 3 m/S 750 mmHg 80%
    01:00 -6°C° 0 mm 3 m/S 749 mmHg 79%
    02:00 -7°C° 0 mm 4 m/S 749 mmHg 77%
    03:00 -7°C° 0 mm 4 m/S 748 mmHg 77%
    04:00 -5°C° 0 mm 4 m/S 748 mmHg 77%
    05:00 -5°C° 0 mm 4 m/S 747 mmHg 76%
    06:00 -5°C° 0 mm 4 m/S 747 mmHg 77%
    07:00 -5°C° 0 mm 4 m/S 746 mmHg 79%
    08:00 -6°C° 0 mm 5 m/S 746 mmHg 80%
    09:00 -4°C° 0 mm 5 m/S 745 mmHg 79%
    10:00 -2°C° 0 mm 5 m/S 745 mmHg 78%
    11:00 -1°C° 0 mm 5 m/S 744 mmHg 77%
    12:00 -1°C° 0 mm 5 m/S 744 mmHg 78%
    13:00 0°C° 0 mm 5 m/S 743 mmHg 78%
    14:00 0°C° 0 mm 5 m/S 743 mmHg 79%
    15:00 0°C° 0 mm 5 m/S 742 mmHg 81%
    16:00 -1°C° 0 mm 5 m/S 742 mmHg 83%
    17:00 -1°C° 0 mm 4 m/S 741 mmHg 84%
    18:00 -1°C° 0 mm 5 m/S 740 mmHg 86%
    19:00 -1°C° 0 mm 5 m/S 740 mmHg 87%
    20:00 -1°C° 0 mm 5 m/S 739 mmHg 88%
    21:00 -1°C° 0 mm 5 m/S 739 mmHg 89%
    22:00 -1°C° 0 mm 5 m/S 738 mmHg 90%
    23:00 -1°C° 0 mm 5 m/S 737 mmHg 91%

    übermorgen, 20 Februar, Mittwoch

    Zeit Temperatur Niederschläge Wind Luftdruck Luftfeuchtigkeit
    00:00 -1°C° 0 mm 5 m/S 736 mmHg 91%
    01:00 0°C° 0 mm 5 m/S 736 mmHg 91%
    02:00 0°C° 0 mm 5 m/S 735 mmHg 91%
    03:00 0°C° 0.3 mm 5 m/S 735 mmHg 91%
    04:00 0°C° 0.3 mm 5 m/S 735 mmHg 91%
    05:00 0°C° 0.3 mm 5 m/S 734 mmHg 92%
    06:00 0°C° 0.1 mm 4 m/S 735 mmHg 92%
    07:00 0°C° 0.1 mm 4 m/S 735 mmHg 92%
    08:00 0°C° 0.1 mm 4 m/S 735 mmHg 92%
    09:00 0°C° 0.1 mm 5 m/S 735 mmHg 89%
    10:00 0°C° 0.1 mm 5 m/S 734 mmHg 87%
    11:00 +1°C° 0.1 mm 5 m/S 734 mmHg 85%
    12:00 +1°C° 0.1 mm 5 m/S 734 mmHg 85%
    13:00 +1°C° 0.1 mm 5 m/S 734 mmHg 84%
    14:00 +1°C° 0.1 mm 5 m/S 734 mmHg 84%
    15:00 +1°C° 0.4 mm 5 m/S 733 mmHg 84%
    16:00 0°C° 0.4 mm 5 m/S 733 mmHg 85%
    17:00 0°C° 0.4 mm 5 m/S 733 mmHg 85%
    18:00 -1°C° 0.3 mm 5 m/S 733 mmHg 81%
    19:00 -2°C° 0.3 mm 5 m/S 733 mmHg 76%
    20:00 -4°C° 0.3 mm 5 m/S 733 mmHg 71%
    21:00 -4°C° 0.1 mm 5 m/S 733 mmHg 74%
    22:00 -5°C° 0.1 mm 5 m/S 734 mmHg 77%
    23:00 -5°C° 0.1 mm 5 m/S 734 mmHg 80%

    21 Februar, Donnerstag

    Zeit Temperatur Niederschläge Wind Luftdruck Luftfeuchtigkeit
    00:00 -5°C° 0.3 mm 6 m/S 734 mmHg 81%
    01:00 -5°C° 0.3 mm 6 m/S 734 mmHg 82%
    02:00 -5°C° 0.3 mm 6 m/S 735 mmHg 83%
    03:00 -5°C° 0.2 mm 6 m/S 735 mmHg 81%
    04:00 -6°C° 0.2 mm 6 m/S 735 mmHg 80%
    05:00 -6°C° 0.2 mm 6 m/S 735 mmHg 79%
    06:00 -6°C° 0.1 mm 6 m/S 736 mmHg 77%
    07:00 -8°C° 0.1 mm 7 m/S 737 mmHg 75%
    08:00 -8°C° 0.1 mm 7 m/S 737 mmHg 73%
    09:00 -8°C° 0.1 mm 7 m/S 738 mmHg 73%
    10:00 -8°C° 0.1 mm 7 m/S 739 mmHg 73%
    11:00 -8°C° 0.1 mm 7 m/S 740 mmHg 73%
    12:00 -8°C° 0.1 mm 7 m/S 740 mmHg 71%
    13:00 -8°C° 0.1 mm 7 m/S 741 mmHg 70%
    14:00 -8°C° 0.1 mm 7 m/S 742 mmHg 69%
    15:00 -8°C° 0.1 mm 7 m/S 743 mmHg 70%
    16:00 -9°C° 0.1 mm 6 m/S 744 mmHg 71%
    17:00 -9°C° 0.1 mm 6 m/S 745 mmHg 72%
    18:00 -10°C° 0 mm 6 m/S 746 mmHg 72%
    19:00 -10°C° 0 mm 6 m/S 747 mmHg 72%
    20:00 -11°C° 0 mm 5 m/S 747 mmHg 72%
    21:00 -11°C° 0 mm 5 m/S 748 mmHg 72%
    22:00 -12°C° 0 mm 5 m/S 749 mmHg 72%
    23:00 -12°C° 0 mm 5 m/S 750 mmHg 73%

    22 Februar, Freitag

    Zeit Temperatur Niederschläge Wind Luftdruck Luftfeuchtigkeit
    00:00 -12°C° 0 mm 5 m/S 751 mmHg 73%
    01:00 -13°C° 0 mm 5 m/S 751 mmHg 73%
    02:00 -13°C° 0 mm 5 m/S 752 mmHg 74%
    03:00 -12°C° 0 mm 4 m/S 753 mmHg 74%
    04:00 -14°C° 0 mm 4 m/S 753 mmHg 74%
    05:00 -14°C° 0 mm 4 m/S 754 mmHg 75%
    06:00 -14°C° 0 mm 4 m/S 755 mmHg 75%
    07:00 -14°C° 0 mm 4 m/S 755 mmHg 75%
    08:00 -14°C° 0 mm 4 m/S 756 mmHg 76%
    09:00 -13°C° 0 mm 5 m/S 757 mmHg 72%
    10:00 -12°C° 0 mm 5 m/S 757 mmHg 69%
    11:00 -11°C° 0 mm 5 m/S 758 mmHg 66%
    12:00 -10°C° 0 mm 5 m/S 758 mmHg 65%
    13:00 -10°C° 0 mm 5 m/S 758 mmHg 63%
    14:00 -10°C° 0 mm 5 m/S 759 mmHg 62%
    15:00 -10°C° 0 mm 5 m/S 759 mmHg 65%
    16:00 -10°C° 0 mm 4 m/S 759 mmHg 69%
    17:00 -10°C° 0 mm 4 m/S 760 mmHg 72%
    18:00 -10°C° 0 mm 4 m/S 760 mmHg 75%
    19:00 -11°C° 0 mm 4 m/S 761 mmHg 77%
    20:00 -11°C° 0 mm 4 m/S 761 mmHg 79%
    21:00 -10°C° 0 mm 3 m/S 762 mmHg 82%
    22:00 -12°C° 0 mm 3 m/S 762 mmHg 84%
    23:00 -10°C° 0 mm 2 m/S 762 mmHg 87%

    23 Februar, Samstag

    Zeit Temperatur Niederschläge Wind Luftdruck Luftfeuchtigkeit
    00:00 -10°C° 0 mm 2 m/S 762 mmHg 88%
    01:00 -9°C° 0 mm 1 m/S 762 mmHg 88%
    02:00 -10°C° 0 mm 1 m/S 762 mmHg 89%
    03:00 -9°C° 0 mm 1 m/S 762 mmHg 86%
    04:00 -9°C° 0 mm 1 m/S 761 mmHg 83%
    05:00 -8°C° 0 mm 1 m/S 761 mmHg 80%
    06:00 -9°C° 0 mm 2 m/S 761 mmHg 75%
    07:00 -9°C° 0 mm 3 m/S 760 mmHg 70%
    08:00 -8°C° 0 mm 3 m/S 760 mmHg 65%
    09:00 -9°C° 0.1 mm 4 m/S 759 mmHg 69%
    10:00 -9°C° 0.1 mm 4 m/S 759 mmHg 73%
    11:00 -8°C° 0.1 mm 5 m/S 758 mmHg 76%
    12:00 -8°C° 0.3 mm 4 m/S 757 mmHg 80%
    13:00 -8°C° 0.3 mm 4 m/S 757 mmHg 84%
    14:00 -8°C° 0.3 mm 4 m/S 756 mmHg 88%
    15:00 -8°C° 0.3 mm 4 m/S 756 mmHg 88%
    16:00 -8°C° 0.3 mm 4 m/S 756 mmHg 89%
    17:00 -7°C° 0.3 mm 4 m/S 755 mmHg 89%
    18:00 -6°C° 0.1 mm 3 m/S 755 mmHg 90%
    19:00 -6°C° 0.1 mm 3 m/S 755 mmHg 91%
    20:00 -6°C° 0.1 mm 3 m/S 755 mmHg 92%
    21:00 -5°C° 0 mm 3 m/S 755 mmHg 92%
    22:00 -5°C° 0 mm 3 m/S 754 mmHg 92%
    23:00 -5°C° 0 mm 3 m/S 754 mmHg 93%
    Mehr zeigen